Skip Page Navigation
NASA JPL Caltech
NASA Logo - Jet Propulsion Laboratory + View the NASA Portal
+ Center for Near-Earth Object Studies
JPL Home Earth Solar System Stars & Galaxies Technology
JPL Solar System Dynamics
BODIES ORBITS EPHEMERIDES TOOLS PHYSICAL DATA DISCOVERY FAQ SITE MAP
JPL Small-Body Database Browser
Search: [ help ]  
180196 (2003 SL110)
Classification: Main-belt Asteroid          SPK-ID: 2180196
Ephemeris | Orbit Diagram | Orbital Elements | Mission Design | Physical Parameters | Discovery Circumstances ]

[ show orbit diagram ]
Orbital Elements at Epoch 2459396.5 (2021-Jul-01.0) TDB
Reference: JPL 20 (heliocentric ecliptic J2000)
 Element Value Uncertainty (1-sigma)   Units 
e .1772867086381556 4.475e-08  
a 2.210921507291584 8.3594e-09 au
q 1.818954510206549 9.8851e-08 au
i 8.368649618425648 5.607e-06 deg
node 5.469343799317976 3.2821e-05 deg
peri 33.40822800141896 3.7651e-05 deg
M 130.8571057553904 1.9135e-05 deg
tp 2458960.031181236970
(2020-Apr-20.53118124)
6.2319e-05 TDB
period 1200.766086393578
3.29
6.8101e-06
1.865e-08
d
yr
n .2998086005920073 1.7003e-09 deg/d
Q 2.602888504376618 9.8414e-09 au
  Orbit Determination Parameters
   # obs. used (total)      364  
   data-arc span      9515 days (26.05 yr)  
   first obs. used      1995-03-27  
   last obs. used      2021-04-14  
   planetary ephem.      DE441  
   SB-pert. ephem.      SB441-N16  
   condition code      0  
   norm. resid. RMS      .5544  
   source      ORB  
   producer      Otto Matic  
   solution date      2021-Jul-09 02:36:24  

Additional Information
 Earth MOID = .831079 au 
 Jupiter MOID = 2.84914 au 
 T_jup = 3.623 
[ hide covariance matrix ]
Orbital Elements at Epoch 2457470.5 (2016-Mar-23.0) TDB
Reference: JPL 20 (heliocentric ecliptic J2000)
 Element Value Uncertainty (1-sigma)   Units 
e .1778825476843291 4.4993e-08  
q 1.817413904848181 9.9508e-08 au
tp 2457757.941758207736
(2017-Jan-04.44175821)
5.7908e-05 TDB
node 5.56173817622914 3.2778e-05 deg
peri 33.01762730253824 3.7554e-05 deg
i 8.376131572265841 5.6102e-06 deg
  Orbit Determination Parameters
   # obs. used (total)      364  
   data-arc span      9515 days (26.05 yr)  
   first obs. used      1995-03-27  
   last obs. used      2021-04-14  
   planetary ephem.      DE441  
   SB-pert. ephem.      SB441-N16  
   condition code      0  
   norm. resid. RMS      .5544  
   source      ORB  
   producer      Otto Matic  
   solution date      2021-Jul-09 02:36:24  

Additional Information
 Jupiter MOID = 2.84914 au 
 T_jup = 3.623 
Orbit Covariance (6×6)
  e q tp node peri i
e 2.024382741668397E-15 -4.466393041514565E-15 -5.039051709796495E-13 1.931670095799154E-14 -2.261584266714446E-13 -4.783805175119772E-15
q -4.466393041514565E-15 9.901781471000001E-15 1.329202738130945E-12 -4.368633802438977E-14 5.608797318508075E-13 1.018192405865899E-14
tp -5.039051709796495E-13 1.329202738130945E-12 3.353338613913189E-9 -1.502627832582633E-12 1.073807816419316E-9 -4.601921401236622E-12
node 1.931670095799154E-14 -4.368633802438977E-14 -1.502627832582633E-12 1.074365059309558E-9 -1.0624415379373E-9 -3.154723035908946E-11
peri -2.261584266714446E-13 5.608797318508075E-13 1.073807816419316E-9 -1.0624415379373E-9 1.410275699253589E-9 2.994471223123733E-11
i -4.783805175119772E-15 1.018192405865899E-14 -4.601921401236622E-12 -3.154723035908946E-11 2.994471223123733E-11 3.147432160011119E-11

Ephemeris | Orbit Diagram | Orbital Elements | Mission Design | Physical Parameters | Discovery Circumstances ]

Physical Parameter Table
Parameter Symbol Value Units Sigma Reference Notes
absolute magnitude H 16.96   n/a MPCxxxxx  

180196 (2003 SL110)          Discovered 2003-Sep-20 by NEAT at Palomar
Reference: 20080321/Numbers.arcLast Updated: 2008-03-26
Ephemeris | Orbit Diagram | Orbital Elements | Mission Design | Physical Parameters | Discovery Circumstances ]
ABOUT SSD CREDITS/AWARDS PRIVACY/COPYRIGHT GLOSSARY LINKS
FirstGov 2021-Jul-25 19:03 UT
(server date/time)  
NASA Home Page
Site Manager:   Ryan S. Park
Webmaster  Alan B. Chamberlin